sat.trackr.live / text

‹ back to catalog

SPEQTRE

NORAD 66769 · 2025-276DH

PAYLOAD ACTIVE UNKNOWN

§ Identity

Operator
Country
SING
Launch date
2025-11-28
Launch site
AFWTR
Launch vehicle
Mass (kg)
RCS (m²)

External: N2YO · Heavens-Above · Gunter

§ Orbital elements

Epoch: 2026-09-18T23:34:50.955744Z

Period
94.66 min
Inclination
97.4123°
Eccentricity
0.0000474
Mean motion
15.21197098 rev/d
Perigee alt
501.9 km
Apogee alt
502.6 km
Semi-major
6,880.4 km
B*
1.3522e-4
RAAN
334.3468°
Arg perigee
125.7959°
Mean anomaly
234.3321°
Rev number
4,469

§ Raw data

SPEQTRE1 66769U 25276DH  26261.98253421  .00002946  00000+0  13522-3 0  99932 66769  97.4123 334.3468 0000474 125.7959 234.3321 15.21197098 44690

JSON: /api/v1/satellites/66769 · /tle

For live sub-satellite position, see the globe view (requires WebGL).

§ Visibility from observer

Set your observer location to see the next 7 days of passes ≥ 10°. The values pass through the URL so the page stays shareable.

No JS? Fill the form by hand. The geolocation button needs JavaScript.